[[{"header":{"parameterUnit":"m.s-1","parameterCategory":1,"la1":30.2991,"la2":30.254,"lo1":-89.0895,"lo2":-89.0444,"dy":0.0017,"dx":0.0017,"nx":28,"ny":28,"refTime":"2025-06-16T21:00:00:Z","depth":0,"parameterNumber":2,"parameterNumberName":"U-component_of_WINDS"},"data":[0,0,0,0,0,0,0,0,0,0,0,0,0,0,0,0,0,0,0,0,0,0,0,0,0,0,0,0,0,0,0,0,0,0,0,0,0,0,0,0,0,0,0,0,0,0,0,0,0,0,0,0,0,0,0,0,0,0,1.0237,1.0236,0,1.0137,1.0135,1.0134,1.0049,1.0049,1.0048,1.0047,0.9942,0.994,0.9938,0,0,0,0,0,0,0,0,0,0,0,0,0,1.0354,1.0352,1.0238,1.0236,1.0235,1.0137,1.0135,1.0134,1.005,1.0049,1.0047,1.0046,0.9943,0.994,0.9938,0,0,0,0,0,0,0,0,0,0,0,0,0,1.0283,1.0352,1.0238,1.0181,1.0175,1.0137,1.0135,1.0134,1.005,1.0048,1.0047,1.0046,0.9943,0.9941,0.9938,0.9947,0,0,0.9929,0.9928,0,0,0,0,0,0,0,0,1.0287,1.0279,1.0191,1.0185,1.0178,1.0104,1.0138,1.0071,1.005,1.0097,1.0047,1.0045,0.9997,0.999,0.9974,0.9942,0.9938,0.9929,0.9927,0.9926,0.9925,0,0,0,0,0,0,0,1.0292,1.0283,1.0197,1.0189,1.0182,1.016,1.0148,1.0125,1.0056,1.0093,1.0087,1.0076,0.9993,0.9977,0.9971,0.9936,0.9929,0.9926,0.9924,0.9923,0.9904,0.9905,0,0,0,0,0,0,1.0306,1.0287,1.0201,1.0194,1.023,1.0159,1.0146,1.0129,1.0056,1.0044,1.0077,1.0072,0.9982,0.9974,0.9967,0.997,0.9926,0.9923,0.9921,0.9902,0.9904,0.9905,0,0,0,0,0,0,1.0309,1.0299,1.0205,1.0239,1.0225,1.0158,1.014,1.0128,1.0111,1.0044,1.0031,1.0073,0.9981,0.9971,0.9952,0.9965,0.9922,0.9919,0.9901,0.9903,0.9904,0.9979,0,0,0,0,0,0,1.0313,1.0301,1.0305,1.024,1.0224,1.0193,1.0141,1.0127,1.0107,1.0099,1.0037,1.0025,0.9979,0.9957,0.9949,0.996,0.9917,0.9899,0.9902,0.9904,0.9975,0.9983,0.999,0,0,0,0,0,1.0317,1.033,1.0306,1.0295,1.0228,1.0194,1.0185,1.0132,1.0108,1.0111,1.0067,1.0027,0.9965,0.9955,0.9946,0.9957,0.9898,0.9901,0.9904,0.9972,0.9982,0.999,0,0,0,0,0,0,1.0399,1.0321,1.0292,1.0285,1.0247,1.018,1.0182,1.0145,1.0112,1.0107,1.0042,1.0028,1.0016,0.9985,0.9975,0.996,0.9926,0.9927,0.9981,0.999,0.9998,1.0005,0.9914,0,0,0,0,0,1.0416,1.0396,1.0329,1.0329,1.0311,1.025,1.0233,1.0196,1.0153,1.0137,1.0092,1.0051,1.0022,1.0005,0.9975,0.997,0.9954,0.9973,0.9981,0.9987,0.9988,0.998,0.9987,0.9914,0.9914,0.9914,0,0,1.0451,1.0406,1.0398,1.0344,1.031,1.0289,1.0237,1.0218,1.0201,1.0133,1.0112,1.0078,1.0028,1.0016,1.0009,0.999,1.0005,0.9991,0.9996,0.9994,0.9984,0.9991,0.9997,0.9916,0.9916,0.9915,0,0,1.0504,1.0469,1.0464,1.043,1.0379,1.0338,1.0337,1.0275,1.0249,1.0227,1.0175,1.0154,1.0106,1.0072,1.0048,1.0086,1.0047,1.0078,1.0117,1.011,1.0116,1.012,1.0131,1.0136,1.008,1.008,1.008,0,1.0554,1.0522,1.0466,1.0449,1.0426,1.0363,1.0356,1.0326,1.0268,1.0252,1.0232,1.0169,1.0132,1.0109,1.0118,1.0102,1.0096,1.0084,1.0119,1.0124,1.0127,1.0136,1.0141,1.0084,1.0083,1.0083,1.0082,0,1.0584,1.0562,1.0564,1.0509,1.0486,1.0474,1.0415,1.0398,1.0362,1.0322,1.0299,1.0251,1.0209,1.0201,1.0166,1.0172,1.0162,1.0132,1.0096,1.0139,1.0146,1.015,1.0089,1.0088,1.0087,1.0086,0,0,1.0686,1.0598,1.06,1.0572,1.051,1.0492,1.0476,1.0435,1.042,1.0382,1.0365,1.0326,1.0296,1.0269,1.023,1.0224,1.0253,1.0194,1.0191,1.0204,1.0253,1.0275,1.028,1.0227,1.0228,1.0228,1.0257,0,1.0727,1.0696,1.0644,1.0629,1.0607,1.0546,1.0532,1.0491,1.0454,1.0428,1.0386,1.0357,1.0322,1.0305,1.0297,1.0252,1.0262,1.0249,1.0209,1.0208,1.0222,1.0285,1.0308,1.0338,1.026,1.026,1.026,0,1.0771,1.0735,1.0718,1.0655,1.0644,1.0632,1.0588,1.0566,1.0517,1.049,1.0459,1.0415,1.0393,1.0362,1.0329,1.0322,1.0302,1.0277,1.0277,1.027,1.0236,1.0277,1.0346,1.035,1.0265,1.0265,1.0264,0,1.0844,1.0791,1.0773,1.0752,1.0679,1.0672,1.0641,1.0592,1.0569,1.0531,1.0515,1.0475,1.0452,1.0421,1.0367,1.0349,1.0339,1.0304,1.0314,1.0315,1.0313,1.0314,1.0378,1.0304,1.0304,1.0304,1.0304,0,1.0894,1.0885,1.0805,1.0794,1.0781,1.0721,1.071,1.0673,1.0629,1.0608,1.0554,1.0535,1.0465,1.0438,1.0395,1.0373,1.0364,1.034,1.0328,1.0343,1.0346,1.0328,1.0324,1.0305,1.0305,1.0305,1.0305,0,1.0972,1.0919,1.0894,1.0827,1.0809,1.0803,1.0744,1.073,1.0688,1.0663,1.0653,1.0588,1.0552,1.0495,1.0444,1.0415,1.0399,1.0381,1.0416,1.0408,1.042,1.0419,1.0474,1.0476,1.0404,1.0405,1.0406,0,1.1007,1.0998,1.0929,1.0912,1.0883,1.0855,1.0831,1.0771,1.0749,1.0692,1.0684,1.0644,1.0609,1.0555,1.0502,1.0461,1.0441,1.0462,1.0434,1.0449,1.0438,1.0438,1.0436,1.0469,1.047,1.0471,1.0471,0,1.1073,1.1046,1.1015,1.0973,1.0946,1.0911,1.0873,1.0861,1.0792,1.0769,1.0732,1.0705,1.0651,1.0612,1.0563,1.0529,1.0488,1.0481,1.048,1.0495,1.0514,1.0501,1.0431,1.048,1.0479,1.0478,1.0478,1.0477,1.1128,1.1117,1.1066,1.1032,1.0997,1.0961,1.0944,1.09,1.0868,1.082,1.0786,1.0751,1.07,1.0631,1.0599,1.0569,1.0551,1.0551,1.0551,1.0551,1.0556,1.0521,1.056,1.056,1.056,1.0559,1.0559,0,1.1189,1.1153,1.1122,1.107,1.1043,1.1007,1.0962,1.0941,1.0911,1.0867,1.0834,1.079,1.0751,1.0694,1.065,1.0637,1.0617,1.0627,1.0627,1.0619,1.0576,1.058,1.0644,1.0644,1.0644,1.0644,1.0644,1.0644,1.1217,1.1195,1.1162,1.1121,1.1085,1.105,1.1027,1.0993,1.0958,1.0912,1.0879,1.0843,1.0793,1.0744,1.0706,1.069,1.0675,1.0691,1.0669,1.063,1.0622,1.0615,1.0618,1.0689,1.0689,1.0714,1.0714,1.0715]},{"header":{"parameterUnit":"m.s-1","parameterCategory":1,"la1":30.2991,"la2":30.254,"lo1":-89.0895,"lo2":-89.0444,"dy":0.0017,"dx":0.0017,"nx":28,"ny":28,"refTime":"2025-06-16T21:00:00:Z","depth":0,"parameterNumber":3,"parameterNumberName":"V-component_of_WINDS"},"data":[0,0,0,0,0,0,0,0,0,0,0,0,0,0,0,0,0,0,0,0,0,0,0,0,0,0,0,0,0,0,0,0,0,0,0,0,0,0,0,0,0,0,0,0,0,0,0,0,0,0,0,0,0,0,0,0,0,0,5.8919,5.8921,0,5.9088,5.909,5.9092,5.9086,5.9084,5.9082,5.9079,5.9247,5.9253,5.926,0,0,0,0,0,0,0,0,0,0,0,0,0,5.8584,5.859,5.8919,5.8921,5.8923,5.9088,5.909,5.9093,5.9087,5.9084,5.9081,5.9078,5.9245,5.9253,5.9261,0,0,0,0,0,0,0,0,0,0,0,0,0,5.8739,5.8592,5.8919,5.894,5.8944,5.9088,5.9091,5.9093,5.9087,5.9084,5.908,5.9077,5.9242,5.9252,5.9262,5.9393,0,0,5.9292,5.9296,0,0,0,0,0,0,0,0,5.873,5.8751,5.8935,5.8939,5.8943,5.9063,5.9034,5.9194,5.9088,5.9033,5.9079,5.9075,5.9188,5.9202,5.9242,5.9401,5.9408,5.9293,5.9299,5.9303,5.9306,0,0,0,0,0,0,0,5.8719,5.8744,5.8986,5.8938,5.8943,5.8939,5.8957,5.9064,5.9128,5.9037,5.9037,5.9058,5.919,5.9232,5.9245,5.9411,5.9293,5.9301,5.9308,5.9312,5.9684,5.9688,0,0,0,0,0,0,5.8705,5.8735,5.898,5.8991,5.8826,5.8948,5.8968,5.9028,5.9127,5.9138,5.9061,5.9057,5.9217,5.9234,5.9251,5.941,5.9303,5.9312,5.9318,5.968,5.9685,5.9689,0,0,0,0,0,0,5.8698,5.8727,5.8974,5.8863,5.8894,5.8958,5.9024,5.9033,5.9075,5.9144,5.9155,5.9092,5.9215,5.9237,5.9358,5.9416,5.9317,5.9326,5.9675,5.9681,5.9687,5.9729,0,0,0,0,0,0,5.8688,5.8724,5.8776,5.8864,5.89,5.9079,5.9028,5.9039,5.9093,5.909,5.9177,5.9188,5.9214,5.9343,5.9368,5.9428,5.9334,5.967,5.9678,5.9685,5.9723,5.9736,5.9747,0,0,0,0,0,5.8676,5.8781,5.8779,5.8809,5.8967,5.9083,5.9103,5.9132,5.9098,5.915,5.9194,5.9185,5.9406,5.9355,5.9383,5.9447,5.9667,5.9676,5.9684,5.9718,5.9733,5.9747,0,0,0,0,0,0,5.8697,5.8793,5.8792,5.8929,5.8998,5.9082,5.9148,5.9148,5.9227,5.922,5.9251,5.9271,5.9391,5.9431,5.9373,5.9578,5.9532,5.9546,5.9547,5.9563,5.9575,5.9561,5.9342,0,0,0,0,0,5.8717,5.8805,5.8884,5.8997,5.9032,5.9084,5.9136,5.9152,5.9224,5.9252,5.9305,5.9374,5.9458,5.9513,5.9595,5.9729,5.9747,5.9787,5.9799,5.9808,5.982,5.9892,5.991,5.9718,5.9718,5.9718,0,0,5.8761,5.8824,5.8877,5.9003,5.9058,5.9146,5.9109,5.9204,5.9269,5.9266,5.9383,5.9425,5.9503,5.963,5.9689,5.9667,5.9877,5.9819,5.9826,5.9833,5.9902,5.992,5.9937,5.9724,5.9723,5.9722,0,0,5.8884,5.8942,5.9042,5.9098,5.9183,5.9217,5.9241,5.9325,5.9352,5.9471,5.947,5.9547,5.9693,5.9748,5.9795,5.9938,5.9932,5.9963,6.0025,6.0095,6.011,6.0123,6.0172,6.019,5.9975,5.9975,5.9976,0,5.8926,5.9061,5.9092,5.9188,5.9242,5.9246,5.9345,5.9398,5.9504,5.954,5.9515,5.9697,5.975,5.9889,5.9924,5.9963,5.9989,5.9953,6.0106,6.012,6.0132,6.0179,6.0198,5.9979,5.9978,5.9978,5.9978,0,5.9107,5.9201,5.9271,5.9375,5.9437,5.9534,5.9577,5.9636,5.9647,5.9683,5.9801,5.9866,5.9959,5.9994,6.0005,6.0135,6.0118,6.0099,6.0053,6.0153,6.0198,6.0216,5.9983,5.9982,5.9981,5.998,0,0,5.9248,5.9368,5.9393,5.9439,5.9533,5.9604,5.97,5.9794,5.9842,5.9916,5.9995,6.0118,6.0101,6.0154,6.0171,6.0233,6.0339,6.0206,6.0208,6.0226,6.0483,6.0495,6.0515,6.0337,6.034,6.0343,6.0475,0,5.9379,5.9552,5.9582,5.9732,5.9817,5.9821,5.9905,5.997,6.0006,6.0081,6.012,6.0206,6.0178,6.021,6.0271,6.0313,6.0391,6.0304,6.0408,6.0411,6.0387,6.0539,6.0553,6.0674,6.0493,6.0496,6.0498,0,5.9555,5.9634,5.9792,5.9873,5.991,5.9985,6.0071,6.0145,6.0218,6.0239,6.0299,6.0309,6.0406,6.0357,6.049,6.043,6.0475,6.0502,6.0507,6.0516,6.046,6.055,6.0714,6.0732,6.0526,6.0524,6.0522,0,5.9638,5.9784,5.9897,5.9937,6.0035,6.0087,6.0129,6.0199,6.0253,6.0329,6.0363,6.0449,6.0495,6.056,6.0591,6.0553,6.0722,6.0675,6.074,6.0739,6.0773,6.077,6.0945,6.0806,6.0805,6.0805,6.0805,0,5.978,5.9876,5.9936,6.0005,6.0112,6.0146,6.025,6.0291,6.0353,6.0429,6.0438,6.0508,6.0547,6.0623,6.0648,6.0753,6.0775,6.0793,6.0798,6.0791,6.0788,6.0819,6.081,6.081,6.0809,6.0808,6.0807,0,5.9891,5.9935,6.0058,6.0141,6.0164,6.0239,6.0308,6.0374,6.041,6.0506,6.053,6.0585,6.0675,6.0713,6.0823,6.084,6.0959,6.0959,6.0935,6.0936,6.0998,6.099,6.1196,6.1224,6.1068,6.107,6.1071,0,5.9977,6.0052,6.0142,6.0194,6.0239,6.0323,6.0378,6.0413,6.047,6.0558,6.0613,6.0703,6.0776,6.0918,6.0967,6.105,6.1051,6.1117,6.1063,6.1053,6.1049,6.1044,6.105,6.1126,6.1128,6.1129,6.113,0,6.0126,6.0143,6.0223,6.0311,6.0377,6.0447,6.0515,6.0557,6.0602,6.0665,6.0757,6.0814,6.0927,6.1015,6.1101,6.1143,6.1143,6.1147,6.1166,6.1158,6.114,6.1149,6.0959,6.1142,6.1141,6.114,6.1139,6.1139,6.0225,6.0291,6.0364,6.0452,6.0508,6.0572,6.0637,6.0682,6.076,6.0855,6.0871,6.0968,6.1038,6.1154,6.1199,6.1274,6.1258,6.1286,6.1292,6.1298,6.1301,6.113,6.129,6.129,6.129,6.129,6.1289,0,6.0372,6.0419,6.05,6.0596,6.0665,6.0662,6.0737,6.0794,6.0881,6.0947,6.1019,6.1124,6.1209,6.1265,6.1351,6.14,6.1402,6.1421,6.1417,6.1426,6.1312,6.1286,6.1418,6.1418,6.1418,6.1418,6.1418,6.1418,6.0456,6.0566,6.0592,6.0729,6.0776,6.0873,6.0915,6.0973,6.1026,6.1143,6.1215,6.1251,6.1312,6.1402,6.148,6.1494,6.1523,6.1543,6.1556,6.1448,6.1434,6.1421,6.1397,6.155,6.155,6.1663,6.1664,6.1665]}]]